Date,TemperatureHighF,TemperatureAvgF,TemperatureLowF,DewpointHighF,DewpointAvgF,DewpointLowF,HumidityHigh,HumidityAvg,HumidityLow,PressureMaxIn,PressureMinIn,WindSpeedMaxMPH,WindSpeedAvgMPH,GustSpeedMaxMPH,PrecipitationSumIn
2012-1-1,56,46,35,46,40,34,97,82,59,30.00,29.56,6,2,11,0.06
2012-1-2,48,38,30,45,23,16,88,55,41,29.74,29.57,12,6,19,0.00
2012-1-3,30,24,14,22,10,-2,78,54,37,30.07,29.72,12,6,23,0.00
2012-1-4,26,19,11,15,6,-1,65,55,40,30.15,29.87,6,4,11,0.00
2012-1-5,40,32,26,25,20,14,83,63,49,29.88,29.75,10,3,16,0.00
2012-1-6,56,39,25,32,28,22,90,67,39,29.85,29.63,10,2,18,0.00
2012-1-7,47,38,32,33,31,28,89,77,59,29.70,29.65,4,0,6,0.00
2012-1-8,46,40,31,30,25,19,72,57,48,30.22,30.04,18,3,18,0.00
2012-1-9,42,34,28,27,22,17,77,62,38,30.22,29.88,8,1,8,0.00
2012-1-10,47,38,31,31,28,22,89,67,52,29.90,29.77,18,4,18,0.00
2012-1-11,49,43,31,42,34,26,95,71,48,30.00,29.68,13,3,13,0.25
2012-1-12,48,44,42,47,43,41,99,96,93,29.69,29.33,26,3,26,1.22
2012-1-13,48,36,28,47,28,13,99,75,50,29.74,29.14,33,7,33,0.06
2012-1-14,32,29,27,22,18,15,80,62,51,29.99,29.74,23,5,23,0.00
2012-1-15,27,21,16,22,4,-2,81,48,30,30.48,29.99,18,5,18,0.00
2012-1-16,36,25,10,30,12,2,89,62,34,30.50,30.05,6,2,13,0.02
2012-1-17,45,39,34,44,38,30,99,94,87,30.05,29.48,5,2,10,0.26
2012-1-18,41,33,21,26,14,10,65,46,34,30.08,29.70,28,6,28,0.00
2012-1-19,33,23,15,26,15,10,87,71,58,30.15,29.94,11,1,11,0.00
2012-1-20,32,28,24,22,9,4,66,44,32,30.19,29.91,19,3,19,0.00
2012-1-21,28,25,21,24,20,10,93,83,47,30.21,29.87,15,3,15,0.00
2012-1-22,34,24,17,31,18,11,88,79,72,30.44,30.21,11,2,11,0.00
2012-1-23,53,41,33,52,40,31,100,96,87,30.31,29.77,18,2,18,0.43
2012-1-24,52,47,42,50,39,32,96,76,59,30.03,29.78,16,5,20,0.00
2012-1-25,47,40,36,32,29,27,73,64,52,30.21,30.03,8,3,20,0.00
2012-1-26,39,36,33,39,34,28,98,90,72,30.14,29.71,11,1,11,0.22
2012-1-27,59,47,39,59,43,32,100,87,64,29.77,29.24,30,4,30,0.29
2012-1-28,49,42,36,33,28,20,73,58,42,29.96,29.76,24,4,24,0.00
2012-1-29,45,38,32,23,17,12,52,42,31,30.10,29.92,21,4,21,0.00
2012-1-30,39,36,32,29,18,13,74,50,36,30.20,29.93,23,5,23,0.00
2012-1-31,61,46,32,34,29,17,66,51,35,30.14,29.91,17,2,17,0.00
2012-2-1,64,54,46,46,41,33,84,61,50,29.92,29.77,24,4,24,0.06
2012-2-2,49,41,34,39,31,22,88,68,57,30.16,29.88,19,3,19,0.00
2012-2-3,46,36,30,23,22,20,70,55,37,30.36,30.16,19,3,19,0.00
2012-2-4,45,38,31,28,25,23,73,59,45,30.25,30.00,9,2,9,0.00
2012-2-5,42,35,30,25,22,19,72,59,41,30.08,29.99,15,2,15,0.00
2012-2-6,52,39,27,31,25,20,78,59,41,30.08,29.87,18,4,18,0.00
2012-2-7,51,42,35,31,28,26,72,59,41,30.14,29.86,12,3,15,0.00
2012-2-8,37,33,29,29,24,18,95,71,47,30.21,30.00,9,1,9,0.00
2012-2-9,45,35,27,29,25,20,95,69,39,30.05,29.96,16,3,16,0.03
2012-2-10,46,37,28,32,25,22,84,63,45,30.04,29.82,14,2,14,0.00
2012-2-11,38,34,30,34,31,23,97,86,69,29.83,29.48,25,2,25,0.12
2012-2-12,32,26,19,23,12,1,75,57,40,29.89,29.59,28,7,28,0.00
2012-2-13,43,34,26,22,18,15,70,54,38,29.96,29.85,25,5,25,0.00
2012-2-14,49,39,34,38,24,15,92,57,28,30.01,29.89,9,1,9,0.01
2012-2-15,47,41,38,40,37,32,95,86,68,30.17,29.95,10,1,10,0.01
2012-2-16,41,41,40,40,39,38,97,95,91,30.02,29.92,7,1,7,0.18
2012-2-17,51,44,35,43,33,23,99,71,34,29.92,29.82,20,3,20,0.00
2012-2-18,50,40,30,37,26,21,92,60,37,30.00,29.77,21,3,21,0.03
2012-2-19,46,38,30,30,25,22,85,62,41,30.00,29.83,12,2,12,0.00
2012-2-20,47,37,27,22,18,12,68,49,29,30.24,29.87,17,4,17,0.00
2012-2-21,50,37,22,38,27,16,86,67,41,30.26,29.76,18,2,18,0.00
2012-2-22,58,47,36,39,35,28,95,67,32,29.76,29.37,16,2,16,0.00
2012-2-23,59,50,42,41,34,24,87,57,28,29.65,29.28,12,4,18,0.00
2012-2-24,47,42,37,43,38,28,98,87,49,29.62,29.25,12,4,20,0.49
2012-2-25,43,39,34,30,24,13,73,54,40,29.96,29.35,17,10,27,0.00
2012-2-26,45,35,27,22,16,11,79,47,33,30.34,29.96,9,4,16,0.00
2012-2-27,59,42,22,34,29,20,94,63,34,30.34,29.97,9,2,19,0.00
2012-2-28,52,44,35,33,24,21,65,46,31,30.29,30.02,10,3,17,0.00
2012-2-29,44,39,33,41,34,24,98,82,63,30.27,29.63,6,2,13,0.53
2012-3-1,45,40,36,41,38,33,98,93,85,29.86,29.55,4,2,11,0.11
2012-3-2,42,38,34,41,35,30,97,88,84,30.03,29.67,6,3,12,0.25
2012-3-3,57,48,42,48,38,21,99,72,29,29.68,29.38,10,4,24,0.09
2012-3-4,45,40,34,25,23,20,67,50,40,29.67,29.48,8,4,16,0.00
2012-3-5,45,36,28,25,16,6,71,47,29,30.29,29.66,7,4,15,0.00
2012-3-6,45,34,24,25,14,8,66,44,29,30.52,30.29,7,3,11,0.00
2012-3-7,64,48,30,46,33,25,90,60,29,30.48,30.21,8,3,17,0.00
2012-3-8,71,61,51,52,49,45,84,67,50,30.21,29.71,12,6,26,0.00
2012-3-9,64,45,37,53,29,17,88,55,33,30.17,29.71,13,6,22,0.02
2012-3-10,43,35,28,20,14,8,68,43,31,30.43,30.17,11,4,18,0.00
2012-3-11,61,44,27,32,26,17,70,49,32,30.44,30.23,9,3,18,0.00
2012-3-12,72,55,41,44,36,31,75,51,26,30.26,30.01,6,3,12,0.00
2012-3-13,75,63,53,59,53,44,95,73,51,30.02,29.80,8,3,15,0.05
2012-3-14,72,61,48,56,38,21,85,48,17,30.07,29.86,8,3,18,0.00
2012-3-15,50,45,43,43,41,32,97,86,51,30.23,30.07,6,3,13,0.00
2012-3-16,50,46,43,48,45,42,99,97,91,30.19,30.01,6,1,12,0.01
2012-3-17,62,50,39,52,45,39,100,86,63,30.26,30.08,6,2,14,0.01
2012-3-18,67,52,45,55,48,44,98,87,64,30.28,30.09,5,2,11,0.00
2012-3-19,78,62,48,59,52,46,98,73,43,30.12,30.02,6,2,13,0.00
2012-3-20,72,61,54,62,57,52,99,89,68,30.22,30.11,6,2,12,0.00
2012-3-21,67,59,55,61,57,54,100,94,78,30.25,30.16,4,1,7,0.00
2012-3-22,77,64,55,63,59,54,100,86,60,30.18,29.96,6,2,13,0.01
2012-3-23,77,62,53,61,53,42,99,73,52,29.98,29.92,8,2,15,0.00
2012-3-24,61,54,48,48,39,23,91,58,25,29.99,29.86,9,3,19,0.07
2012-3-25,55,48,45,46,44,40,94,83,70,29.87,29.63,5,2,11,0.03
2012-3-26,54,46,35,45,27,6,97,54,22,30.04,29.60,15,6,36,0.00
2012-3-27,53,40,29,17,5,-2,40,24,10,30.19,30.03,9,4,22,0.00
2012-3-28,69,53,37,51,36,14,74,53,31,30.06,29.43,8,3,18,0.04
2012-3-29,62,53,44,51,38,28,70,57,45,29.92,29.47,12,7,26,0.00
2012-3-30,58,46,37,40,28,23,87,51,30,29.99,29.82,7,3,16,0.04
2012-3-31,44,41,39,41,39,38,97,93,87,29.89,29.76,4,2,13,0.58
2012-4-1,52,46,41,46,41,39,97,84,64,29.81,29.51,5,1,11,0.16
2012-4-2,58,48,40,46,30,16,97,56,23,29.79,29.50,11,6,24,0.12
2012-4-3,67,52,38,30,20,14,54,31,14,29.87,29.66,10,4,20,0.00
2012-4-4,70,58,47,37,29,20,65,34,19,29.68,29.41,11,4,33,0.00
2012-4-5,59,49,38,31,28,25,67,45,30,29.82,29.62,8,4,20,0.00
2012-4-6,60,47,32,27,22,15,71,41,18,29.93,29.77,8,4,18,0.00
2012-4-7,61,50,38,22,18,13,46,30,16,30.00,29.85,11,5,25,0.00
2012-4-8,68,55,40,36,23,16,46,29,15,29.93,29.54,10,4,26,0.00
2012-4-9,63,56,49,32,26,20,49,32,20,29.66,29.52,15,7,31,0.00
2012-4-10,61,52,44,38,31,24,72,47,25,29.70,29.55,15,4,22,0.00
2012-4-11,54,47,43,36,32,27,72,56,37,29.80,29.68,18,4,19,0.00
2012-4-12,60,51,42,38,34,29,78,55,34,30.02,29.80,17,4,17,0.00
2012-4-13,66,54,39,34,30,26,70,43,24,30.12,30.00,13,2,13,0.00
2012-4-14,73,60,42,41,33,28,67,39,20,30.13,29.91,16,2,16,0.00
2012-4-15,77,66,61,60,51,40,78,60,40,29.93,29.84,17,4,17,0.00
2012-4-16,91,89,84,61,58,53,45,36,30,29.88,29.76,16,3,16,0.00
2012-4-17,80,71,65,60,52,32,78,56,18,30.02,29.80,14,3,16,0.00
2012-4-18,62,57,50,46,38,33,84,51,37,30.13,30.01,7,1,8,0.00
2012-4-19,73,59,47,51,47,40,95,68,32,30.02,29.87,10,2,11,0.05
2012-4-20,72,59,44,55,50,43,97,74,47,29.92,29.74,7,2,11,0.00
2012-4-21,79,66,55,61,58,53,94,76,50,29.74,29.50,8,3,16,0.21
2012-4-22,55,50,46,53,48,45,98,94,83,29.69,29.18,8,4,18,2.14
2012-4-23,50,47,41,49,44,37,99,90,76,29.31,29.02,6,3,16,0.12
2012-4-24,60,50,39,37,32,24,86,56,26,29.60,29.30,9,4,17,0.00
2012-4-25,64,50,34,38,34,29,96,58,28,29.79,29.61,6,2,16,0.00
2012-4-26,60,50,35,55,47,34,99,90,77,29.82,29.48,4,1,9,0.03
2012-4-27,56,50,41,56,34,26,99,57,36,30.06,29.47,10,5,18,0.00
2012-4-28,60,48,33,31,29,25,81,49,30,30.17,30.00,6,2,9,0.00
2012-4-29,66,53,37,33,23,14,82,37,14,30.14,29.96,8,3,13,0.00
2012-4-30,62,52,34,43,30,20,76,46,24,30.25,30.09,5,2,12,0.00
2012-5-1,76,60,51,62,54,43,98,80,57,30.09,29.85,4,1,8,0.35
2012-5-2,56,52,50,53,50,48,97,92,87,30.07,29.96,3,2,8,0.24
2012-5-3,60,55,50,56,53,49,99,94,86,30.12,29.95,5,1,6,0.23
2012-5-4,79,63,54,68,59,53,100,89,66,30.00,29.72,4,1,8,0.04
2012-5-5,65,58,55,60,57,54,99,94,82,29.94,29.73,4,1,9,0.01
2012-5-6,66,58,49,55,51,44,98,78,49,30.01,29.92,5,2,10,0.03
2012-5-7,67,57,47,56,49,44,94,76,57,30.04,29.96,4,1,8,0.02
2012-5-8,73,63,56,60,54,46,96,74,55,29.98,29.70,7,2,13,0.09
2012-5-9,73,65,59,67,63,55,99,93,71,29.71,29.46,4,1,11,0.29
2012-5-10,65,59,48,55,46,35,97,66,36,29.74,29.40,8,3,14,0.18
2012-5-11,72,58,42,43,38,30,91,53,22,30.01,29.74,8,3,15,0.00
2012-5-12,80,65,46,49,43,38,80,49,25,30.14,30.01,5,2,10,0.00
2012-5-13,84,71,59,60,52,47,69,52,30,30.08,29.95,5,2,9,0.00
2012-5-14,70,66,62,63,60,56,97,82,63,30.04,29.97,4,1,8,0.04
2012-5-15,72,65,61,67,63,60,99,95,85,30.00,29.81,3,1,8,0.62
2012-5-16,82,71,62,69,63,56,100,77,43,29.83,29.69,4,2,9,0.21
2012-5-17,75,64,52,58,45,38,82,51,28,30.02,29.78,6,2,13,0.00
2012-5-18,71,59,47,50,44,37,95,61,33,30.12,30.01,5,2,12,0.00
2012-5-19,81,63,44,51,47,43,96,61,28,30.07,29.98,5,1,8,0.00
2012-5-20,78,65,49,60,50,28,94,65,17,30.12,30.03,6,2,13,0.00
2012-5-21,65,62,58,63,60,56,100,95,81,30.08,29.88,3,1,8,1.68
2012-5-22,74,66,61,66,64,61,100,94,77,29.88,29.69,3,1,8,0.15
2012-5-23,79,70,64,69,66,63,100,87,67,29.92,29.75,4,1,8,0.02
2012-5-24,68,64,62,66,64,62,100,98,92,30.08,29.92,5,2,14,0.00
2012-5-25,80,67,62,72,66,62,100,95,74,30.08,30.00,3,1,8,0.02
2012-5-26,87,73,62,75,69,62,100,87,63,30.03,29.95,5,1,11,0.00
2012-5-27,84,74,67,73,69,61,99,84,63,30.06,29.86,4,1,9,0.15
2012-5-28,93,80,69,74,70,68,95,73,50,29.87,29.76,4,2,8,0.00
2012-5-29,92,82,69,75,71,66,97,74,45,29.77,29.57,7,3,13,0.09
2012-5-30,80,72,65,70,67,63,99,85,60,29.66,29.58,3,1,8,0.00
2012-5-31,82,71,61,64,56,50,99,63,33,29.81,29.58,6,2,11,0.01
2012-6-1,73,64,57,64,57,50,98,78,55,29.89,29.62,8,3,16,0.15
2012-6-2,75,68,56,67,58,49,100,73,47,29.66,29.52,6,2,12,0.33
2012-6-3,76,64,53,59,54,50,90,71,44,29.67,29.53,6,2,12,0.00
2012-6-4,65,58,54,58,54,48,98,86,62,29.70,29.50,5,2,10,0.47
2012-6-5,68,58,46,56,50,45,96,76,49,29.84,29.70,4,1,8,0.02
2012-6-6,76,62,48,59,53,48,99,75,42,29.90,29.81,4,1,8,0.01
2012-6-7,79,67,58,60,56,51,95,72,41,29.87,29.79,5,1,8,0.01
2012-6-8,84,70,54,59,56,53,99,66,36,29.84,29.71,6,2,12,0.01
2012-6-9,82,72,64,62,58,55,77,63,46,29.86,29.75,5,1,10,0.00
2012-6-10,88,75,65,71,65,61,96,74,47,30.06,29.85,4,1,8,0.00
2012-6-11,76,69,65,66,63,60,96,82,60,30.12,30.04,5,2,12,0.00
2012-6-12,74,68,66,69,66,62,99,92,81,30.06,29.76,5,2,11,1.76
2012-6-13,76,69,64,66,64,60,100,86,61,29.94,29.73,6,2,11,0.54
2012-6-14,78,68,59,65,62,58,97,81,61,30.13,29.95,5,2,10,0.00
2012-6-15,80,68,55,63,56,51,100,69,41,30.18,30.12,4,1,12,0.00
2012-6-16,81,68,53,60,56,51,99,70,38,30.22,30.10,4,2,10,0.00
2012-6-17,73,65,54,62,58,53,95,79,64,30.12,29.97,5,2,10,0.00
2012-6-18,72,62,51,60,56,50,99,82,60,30.05,29.97,4,1,10,0.00
2012-6-19,81,70,62,70,64,58,90,80,65,30.06,29.94,4,1,10,0.00
2012-6-20,97,84,69,76,72,67,95,70,47,29.97,29.82,4,2,10,0.00
2012-6-21,97,87,75,74,72,69,88,62,42,29.83,29.66,5,2,10,0.00
2012-6-22,94,80,69,75,71,67,99,77,48,29.70,29.61,10,1,16,0.53
2012-6-23,87,76,65,71,62,53,100,67,34,29.87,29.68,6,2,12,0.01
2012-6-24,87,75,58,65,60,54,96,63,34,29.90,29.77,4,1,10,0.00
2012-6-25,77,69,63,69,64,51,98,83,57,29.78,29.52,9,1,12,1.01
2012-6-26,75,66,57,55,51,48,73,59,43,29.68,29.58,8,4,18,0.00
2012-6-27,85,72,57,56,52,49,78,53,30,29.73,29.62,8,3,14,0.00
2012-6-28,92,78,65,64,60,54,73,54,36,29.74,29.59,5,2,10,0.00
2012-6-29,97,84,72,76,70,63,82,64,46,29.61,29.50,5,2,10,0.00
2012-6-30,95,85,75,74,67,58,81,57,32,29.66,29.52,5,2,13,0.00
2012-7-1,96,83,69,72,67,59,90,61,38,29.73,29.62,8,2,13,0.00
2012-7-2,89,79,66,62,59,56,76,52,34,29.81,29.72,6,2,13,0.00
2012-7-3,94,80,63,68,62,59,88,58,33,29.85,29.69,4,1,10,0.00
2012-7-4,95,84,71,72,70,65,95,64,46,29.74,29.58,5,2,10,0.03
2012-7-5,96,86,74,75,68,60,83,58,32,29.73,29.59,6,2,11,0.00
2012-7-6,96,82,65,70,62,52,93,56,24,29.81,29.71,4,1,10,0.00
2012-7-7,99,86,76,75,70,64,84,62,37,29.75,29.61,6,2,10,0.00
2012-7-8,94,83,75,72,67,60,88,62,35,29.75,29.66,4,1,10,0.00
2012-7-9,87,79,72,63,60,56,67,53,38,29.84,29.73,4,2,10,0.00
2012-7-10,88,77,64,68,61,55,86,60,35,29.97,29.84,4,2,10,0.00
2012-7-11,88,78,67,70,64,57,93,65,41,30.08,29.96,14,2,14,0.00
2012-7-12,92,78,66,67,63,56,94,63,37,30.09,30.00,14,1,14,0.00
2012-7-13,90,79,68,70,65,61,86,64,43,30.09,30.00,9,1,9,0.00
2012-7-14,85,78,72,69,66,62,80,67,50,30.09,30.01,14,2,14,0.00
2012-7-15,91,79,71,78,72,67,97,79,60,30.03,29.80,24,1,24,0.39
2012-7-16,93,80,69,74,71,68,99,75,47,29.82,29.66,12,2,12,0.01
2012-7-17,98,85,68,71,68,63,90,59,37,29.74,29.61,15,2,15,0.00
2012-7-18,102,84,73,77,72,70,98,71,38,29.78,29.62,17,2,17,0.19
2012-7-19,79,72,68,73,68,63,100,87,61,29.87,29.76,10,1,10,0.32
2012-7-20,71,66,63,68,64,62,98,95,86,29.94,29.81,15,2,15,0.85
2012-7-21,80,70,62,64,61,54,98,74,47,30.01,29.91,12,1,12,0.00
2012-7-22,84,74,61,68,64,60,98,73,54,30.05,29.97,10,2,10,0.00
2012-7-23,91,78,68,74,70,64,94,78,52,30.00,29.68,10,2,10,0.01
2012-7-24,95,83,73,75,69,61,94,67,38,29.69,29.46,20,3,20,0.00
2012-7-25,88,77,64,62,56,52,69,50,35,29.79,29.63,14,2,14,0.00
2012-7-26,93,77,67,76,68,60,99,77,56,29.68,29.49,23,2,23,0.94
2012-7-27,89,79,70,75,72,70,99,82,58,29.74,29.55,14,2,14,0.00
2012-7-28,80,75,69,76,72,69,99,91,83,29.83,29.73,10,0,10,0.23
2012-7-29,83,72,67,71,69,66,99,89,62,29.93,29.80,10,0,10,0.48
2012-7-30,84,73,65,71,68,65,100,84,61,30.00,29.92,12,0,12,0.00
2012-7-31,82,74,65,69,67,64,98,82,59,29.96,29.78,10,0,10,0.00
2012-8-1,83,73,67,74,70,66,99,93,72,29.81,29.72,11,0,11,0.31
2012-8-2,92,79,67,75,70,65,100,78,42,29.79,29.72,9,0,9,0.01
2012-8-3,95,82,70,78,73,68,99,76,42,29.97,29.79,12,0,12,0.00
2012-8-4,93,80,71,78,74,70,99,83,53,30.07,29.96,13,0,13,0.04
2012-8-5,95,82,73,78,75,71,98,80,50,30.05,29.81,24,2,24,0.33
2012-8-6,88,79,67,75,68,60,99,73,41,29.90,29.82,18,2,18,0.26
2012-8-7,86,74,61,69,64,59,98,72,43,29.90,29.82,8,1,8,0.00
2012-8-8,90,78,66,74,70,62,99,79,44,29.88,29.81,9,1,9,0.00
2012-8-9,92,78,70,75,71,67,100,82,46,29.85,29.72,13,1,13,0.02
2012-8-10,83,76,70,77,74,70,99,91,72,29.76,29.63,7,1,7,0.77
2012-8-11,89,79,70,76,72,69,100,82,56,29.78,29.67,15,2,15,0.00
2012-8-12,86,77,70,71,67,63,96,72,48,29.83,29.75,13,2,13,0.00
2012-8-13,87,76,65,66,62,58,88,66,39,29.90,29.81,14,2,14,0.00
2012-8-14,80,72,63,72,68,61,97,87,74,29.86,29.75,10,1,10,0.04
2012-8-15,88,75,66,74,70,66,99,86,57,29.78,29.70,14,1,14,1.17
2012-8-16,86,74,65,67,64,60,100,73,42,29.81,29.73,13,2,13,0.01
2012-8-17,90,77,64,70,65,60,90,69,45,29.77,29.64,16,2,16,0.02
2012-8-18,83,70,61,68,62,54,99,78,41,29.81,29.71,10,1,10,0.52
2012-8-19,76,66,55,62,57,53,97,74,47,29.87,29.80,4,0,4,0.00
2012-8-20,82,71,60,64,61,59,97,73,49,29.81,29.71,9,1,9,0.00
2012-8-21,85,73,62,65,62,57,96,71,40,29.98,29.80,8,1,8,0.00
2012-8-22,85,73,61,68,64,59,99,76,45,30.03,29.97,11,1,11,0.00
2012-8-23,89,74,61,68,63,59,99,73,39,30.05,29.97,8,1,8,0.00
2012-8-24,88,76,63,66,64,60,98,70,40,30.06,29.99,9,1,9,0.00
2012-8-25,84,74,65,71,67,64,98,80,55,30.15,30.05,14,1,14,0.00
2012-8-26,81,73,66,69,66,62,95,80,57,30.20,30.09,14,2,14,0.00
2012-8-27,82,74,65,75,70,65,99,91,75,30.10,29.83,23,1,23,1.33
2012-8-28,88,78,71,74,68,59,98,74,42,29.83,29.68,15,2,15,0.06
2012-8-29,82,71,60,61,58,53,91,65,42,29.91,29.78,10,1,10,0.00
2012-8-30,84,70,55,61,57,52,97,66,37,30.00,29.91,15,1,15,0.00
2012-8-31,91,77,62,69,62,57,90,64,34,29.95,29.78,16,2,16,0.00
2012-9-1,94,79,70,72,67,60,92,68,33,29.93,29.81,13,2,13,0.00
2012-9-2,82,75,69,72,70,68,96,87,67,29.96,29.88,9,1,9,0.01
2012-9-3,76,72,68,71,69,68,99,92,77,30.03,29.94,14,2,14,0.32
2012-9-4,82,74,69,76,73,68,100,95,81,29.97,29.71,12,1,12,0.45
2012-9-5,84,77,67,77,72,65,97,87,65,29.72,29.65,14,2,14,0.15
2012-9-6,82,72,63,72,67,63,100,88,67,29.80,29.71,6,0,6,0.01
2012-9-7,91,78,68,75,71,67,99,80,55,29.81,29.70,10,1,10,0.00
2012-9-8,88,74,65,76,70,64,98,87,62,29.75,29.43,20,2,20,0.31
2012-9-9,80,69,59,64,58,52,99,73,39,29.78,29.65,14,1,14,0.01
2012-9-10,74,64,57,57,51,45,90,64,41,30.02,29.78,18,3,18,0.00
2012-9-11,76,60,46,53,48,44,97,69,36,30.17,30.02,11,1,11,0.00
2012-9-12,84,66,49,59,54,48,99,70,37,30.25,30.17,10,1,10,0.00
2012-9-13,83,67,52,64,58,52,99,76,40,30.26,30.14,9,1,9,0.00
2012-9-14,83,69,54,64,60,54,99,76,42,30.17,29.98,10,1,10,0.00
2012-9-15,74,65,55,62,53,48,92,68,44,30.03,29.95,19,3,19,0.00
2012-9-16,76,61,49,54,50,46,97,70,37,30.03,29.91,14,1,14,0.00
2012-9-17,80,64,47,61,52,46,98,69,38,30.01,29.90,11,1,11,0.00
2012-9-18,78,72,68,72,68,61,99,89,76,29.91,29.49,29,4,29,1.14
2012-9-19,72,63,50,67,51,44,99,68,40,30.07,29.62,19,2,19,0.01
2012-9-20,70,58,47,61,54,45,98,84,65,30.10,29.99,11,1,11,0.00
2012-9-21,74,64,55,61,58,55,99,84,56,30.00,29.89,11,1,11,0.00
2012-9-22,82,65,52,69,60,52,100,86,61,29.90,29.65,11,1,11,0.00
2012-9-24,63,54,48,45,44,42,84,72,47,30.04,29.99,3,0,3,0.00
2012-9-25,74,59,40,56,49,39,99,73,43,30.11,30.00,16,2,16,0.00
2012-9-26,78,68,62,67,62,56,99,82,62,30.03,29.89,12,2,12,0.42
2012-9-27,76,68,63,67,64,62,99,88,66,30.06,29.94,8,1,8,0.11
2012-9-28,78,67,60,69,64,57,100,91,70,30.04,29.81,10,1,10,0.33
2012-9-29,67,61,55,57,56,54,97,86,70,29.83,29.75,10,1,10,0.00
2012-9-30,69,58,52,57,53,49,99,84,51,29.77,29.66,13,1,13,0.06
2012-10-1,73,59,49,54,51,48,96,76,49,29.85,29.73,14,2,14,0.00
2012-10-2,68,62,59,64,60,53,100,91,76,29.91,29.84,7,0,7,0.53
2012-10-3,73,67,62,72,67,62,100,99,94,30.00,29.86,4,0,4,0.01
2012-10-4,76,70,64,72,68,63,100,96,84,30.02,29.92,5,0,5,0.01
2012-10-5,81,67,56,63,60,56,100,82,50,29.97,29.81,8,1,8,0.01
2012-10-6,77,63,50,64,57,47,99,82,63,29.89,29.65,18,2,18,0.00
2012-10-7,52,48,42,49,45,41,98,91,73,30.02,29.89,7,0,7,0.18
2012-10-8,55,48,39,47,44,39,100,87,64,30.19,30.01,10,0,10,0.01
2012-10-9,58,53,48,55,51,45,98,90,84,30.13,29.97,13,1,13,0.05
2012-10-10,68,58,53,58,52,44,99,82,57,29.97,29.70,17,2,17,0.23
2012-10-11,61,52,43,44,38,34,84,61,37,30.11,29.86,16,2,16,0.00
2012-10-12,59,48,40,44,37,28,94,68,42,30.33,29.97,23,3,23,0.00
2012-10-13,58,44,30,42,31,24,94,65,30,30.44,30.20,9,1,9,0.00
2012-10-14,74,60,48,58,51,42,86,72,48,30.21,29.83,18,3,18,0.00
2012-10-15,71,64,58,63,60,56,98,87,72,29.83,29.52,16,2,16,0.37
2012-10-16,61,53,40,58,42,38,98,70,45,29.82,29.57,20,3,20,0.01
2012-10-17,64,48,35,45,41,35,99,79,47,29.92,29.82,8,1,8,0.00
2012-10-18,68,54,38,60,49,37,99,86,58,29.94,29.81,18,2,18,0.00
2012-10-19,70,65,62,68,64,60,99,95,88,29.81,29.54,15,2,15,0.97
2012-10-20,69,60,51,63,52,44,100,78,51,29.73,29.53,16,2,16,0.01
2012-10-21,67,56,46,46,43,40,86,64,38,29.94,29.73,16,3,16,0.00
2012-10-22,70,57,43,46,44,41,91,64,37,30.03,29.90,16,2,16,0.00
2012-10-23,65,55,44,55,49,43,97,82,57,30.03,29.95,4,0,4,0.00
2012-10-24,63,58,55,58,56,54,97,92,84,30.08,29.97,7,1,7,0.00
2012-10-25,63,59,56,57,55,54,92,87,80,30.16,30.08,8,1,8,0.00
2012-10-26,68,61,57,59,57,55,97,87,70,30.12,29.99,6,0,6,0.00
2012-10-27,66,61,56,59,56,54,92,83,67,29.99,29.78,11,1,11,0.00
2012-10-28,60,58,56,55,50,44,86,75,63,29.79,29.53,21,5,21,0.00
2012-10-29,62,57,54,61,53,48,98,89,75,29.53,28.34,29,10,33,0.86
2012-11-3,48,42,41,33,28,-100,66,61,55,29.87,29.75,19,-18,23,0.00
2012-11-4,50,43,37,35,32,30,78,67,55,29.89,29.83,17,3,17,0.00
2012-11-5,47,40,31,32,26,21,70,59,45,30.08,29.88,16,3,16,0.00
2012-11-6,46,33,23,26,22,19,92,65,40,30.13,29.95,9,1,9,0.00
2012-11-7,40,35,32,33,29,20,98,80,51,29.96,29.68,19,5,19,0.07
2012-11-8,48,39,32,32,28,23,98,67,42,29.84,29.65,21,4,21,0.23
2012-11-9,55,44,35,34,30,25,84,59,34,30.10,29.84,17,3,17,0.00
2012-11-10,55,45,37,42,38,33,93,76,58,30.31,30.10,7,0,7,0.00
2012-11-11,70,51,36,52,45,35,98,82,50,30.38,30.30,8,1,8,0.00
2012-11-12,71,54,39,59,51,38,99,89,62,30.36,30.06,17,1,17,0.00
2012-11-13,63,48,37,60,42,30,94,81,65,30.34,30.00,22,3,22,0.14
2012-11-14,50,39,30,32,28,25,90,67,48,30.41,30.33,12,1,12,0.00
2012-11-15,47,38,31,32,29,24,91,70,48,30.36,30.19,11,1,11,0.00
2012-11-16,48,39,31,31,28,26,85,68,49,30.34,30.19,9,1,9,0.00
2012-11-17,54,41,32,36,31,27,92,70,47,30.53,30.34,11,1,12,0.00
2012-11-18,51,40,32,39,33,28,93,78,58,30.56,30.45,9,1,9,0.00
2012-11-19,49,42,35,40,36,32,89,80,69,30.45,30.14,12,2,12,0.00
2012-11-20,52,41,30,37,32,29,96,75,45,30.14,30.00,7,0,7,0.00
2012-11-21,55,42,32,38,32,26,94,71,41,30.12,30.03,12,1,12,0.00
2012-11-22,57,42,31,44,36,26,96,80,58,30.16,30.03,7,0,7,0.00
2012-11-23,59,45,30,45,39,30,99,81,50,30.03,29.58,10,1,10,0.00
2012-11-24,49,40,35,44,26,19,86,57,46,29.77,29.58,24,6,24,0.00
2012-11-25,41,36,31,25,22,18,71,58,51,29.87,29.76,18,4,18,0.00
2012-11-26,50,38,29,28,24,22,82,61,35,30.16,29.87,18,2,18,0.00
2012-11-27,38,34,30,34,31,25,98,88,66,30.18,30.09,7,1,7,0.42
2012-11-28,41,35,32,34,28,24,97,76,54,30.19,30.08,16,2,16,0.19
2012-11-29,44,36,29,29,26,22,77,67,55,30.27,30.17,17,3,17,0.01
2012-11-30,46,39,28,39,31,24,87,73,54,30.33,30.22,12,2,12,0.00
2012-12-1,41,39,37,39,35,30,95,84,78,30.41,30.31,11,3,11,0.00
2012-12-2,50,44,39,46,42,39,98,95,82,30.32,30.02,9,1,9,0.07
2012-12-3,63,51,42,52,47,41,98,88,63,30.15,30.00,11,2,11,0.00
2012-12-4,69,55,44,58,51,43,98,88,66,30.16,29.86,14,1,14,0.02
2012-12-5,57,50,34,53,39,20,93,67,45,30.16,29.81,22,5,22,0.02
2012-12-6,43,33,27,24,21,19,86,62,39,30.26,30.14,11,1,11,0.00
2012-12-7,42,35,25,42,33,23,98,93,82,30.19,29.91,1,0,1,0.18
2012-12-8,50,46,42,48,45,41,99,98,95,29.91,29.76,9,1,9,0.30
2012-12-9,48,44,41,48,43,38,99,94,84,30.14,29.89,15,2,15,0.23
2012-12-10,57,50,44,57,50,44,100,99,98,29.90,29.44,5,0,6,0.04
2012-12-11,55,45,38,55,37,31,100,76,57,30.10,29.47,17,3,17,0.05
2012-12-12,44,37,30,32,29,26,95,75,51,30.33,30.09,11,1,11,0.00
2012-12-13,48,36,28,30,27,24,93,72,43,30.36,30.22,8,0,8,0.00
2012-12-14,50,37,28,30,27,24,89,68,44,30.22,30.05,16,2,16,0.00
2012-12-15,49,39,30,37,32,26,92,78,60,30.21,30.08,7,0,7,0.00
2012-12-16,50,46,43,48,43,37,98,92,78,30.09,29.79,14,2,14,0.39
2012-12-17,45,42,40,44,42,39,99,98,96,29.81,29.50,12,2,12,0.27
2012-12-18,55,47,41,50,44,36,100,89,73,29.54,29.35,21,3,21,0.53
2012-12-19,48,42,35,36,31,27,82,65,51,30.04,29.54,24,5,24,0.00
2012-12-20,47,38,27,45,32,25,94,78,60,30.11,29.64,14,1,14,0.10
2012-12-21,58,45,35,56,39,29,98,82,66,29.64,28.99,31,7,31,0.90
2012-12-22,39,37,34,32,26,21,91,64,48,29.75,29.25,32,7,32,0.00
2012-12-23,43,37,30,27,24,19,70,59,37,29.86,29.75,17,4,17,0.00
2012-12-24,40,33,26,33,26,21,97,75,56,29.99,29.82,8,1,8,0.00
2012-12-25,40,36,29,35,32,25,98,84,72,30.15,29.80,16,3,16,0.17
2012-12-26,39,32,27,38,29,22,97,87,72,30.18,29.37,27,4,27,0.99
2012-12-27,40,36,30,39,31,21,97,83,69,29.77,29.17,27,8,27,0.58
2012-12-28,39,32,25,27,24,21,90,71,59,29.98,29.75,18,4,24,0.00
2012-12-29,33,31,24,32,28,22,96,90,81,29.95,29.40,11,1,11,0.00
2012-12-30,36,32,28,28,20,15,87,62,49,30.10,29.51,31,7,31,0.00
2012-12-31,37,33,26,27,22,15,74,65,58,30.11,29.80,22,4,22,0.01
2013-1-1,40,36,27,32,27,16,84,68,54,29.92,29.74,20,4,20,0.00